Погода в Ольше

Россия / Смоленская область     54°50′46″N   31°50′58″E
темп.,
°C
ветер,
м/с
пор.,
м/с
влажн.,
%
обл.,
%
осадки,
мм/ч
давл.,
гПа
погр.,
м
17 апреля, сб
сб1700:00+9всв4994100 0.2 1017236
03:00+8всв3896100 0.8 1017232
06:00+7вюв359634 0.9 1018197
09:00+10в35770 0.9 1020436
12:00+13в465768 0.0 10201564
15:00+13св7766100 0.3 10191232
18:00+10ссв71284100 0.3 1017853
21:00+11всв71381100 1.8 1017704
18 апреля, вс
вс1800:00+10св8147738 0.6 1016819
03:00+9св71380100 0.6 1017726
06:00+7в3689100 0.3 1018535
09:00+6св5790100 1.6 1019570
12:00+5св5793100 0.7 1020572
15:00+6св5788100 0.8 1021536
18:00+7св6782100 0.0 1021682
21:00+5всв589199 0.0 1022610
19 апреля, пн
пн1900:00+5св4993100 0.0 1022526
03:00+5св51089100 0.0 1022458
06:00+5св5993100 0.1 1022494
09:00+6всв61088100 0.1 1022730
12:00+7всв6985100 0.1 10221064
15:00+7всв6986100 0.2 10221068
18:00+6всв6988100 0.1 1021901
21:00+5всв61191100 0.1 1021625
20 апреля, вт
вт2000:00+5всв61095100 0.0 1019727
03:00+5всв61294100 0.1 1018528
06:00+5всв71193100 0.3 1016897
09:00+5всв61091100 2.3 1015789
12:00+5всв71092100 0.0 1014678
15:00+3св61196100 0.0 1011571
18:00+2ссв71296100 0.3 1008514
21:00+1ссв71498100 3.6 1003523
21 апреля, ср
ср2100:00+1с71499100 5.0 998628
03:00+1ссз71399100 12.5 994431
06:00+2сз610100100 4.9 992258
09:00+1з81399100 7.4 993431
12:00+1зюз81499100 3.2 996617
15:00+2зюз81499100 4.8 1000822
18:00+3юз81399100 0.9 1004838
21:00+4зюз71398100 1.4 1007824